Location: Unspecified
(0.0000°N, 0.0000°E)
Time: 14:47:12
(UTC+00:00)

A-11 Canister half - Pass Details

Date: 22 May 2026
Orbit: 1515 x 1685 km, 47.2° (Epoch: 8 June)

Event Time Altitude Azimuth Distance (km) Brightness Sun altitude
Rises 14:21:43 0° 194° (SSW) 4,938 11.5 49.1°
Reaches altitude 10° 14:26:09 10° 178° (S) 3,941 11.0 48.1°
Maximum altitude 14:33:05 20° 134° (SE) 3,156 10.5 46.6°
Drops below altitude 10° 14:39:52 10° 90° (E) 3,875 10.8 45.2°
Sets 14:44:05 0° 74° (ENE) 4,832 11.3 44.3°
